+ View the NASA Portal
+ Center for Near-Earth Object Studies
IMPORTANT:
The SSD Announcement email list is now available. Major changes are coming in the near future, including possible hostname and/or URL changes. To be notified of such changes, subscribe to this email list.
Please visit
this page
for more details.
Don't show this message again
JPL Small-Body Database Browser
Search:
[
help
]
351365 (2005 CN19)
Classification:
Main-belt Asteroid
SPK-ID:
2351365
[
Ephemeris
|
Orbit Diagram
|
Orbital Elements
|
Mission Design
|
Physical Parameters
|
Discovery Circumstances
|
Close-Approach Data
]
[ show orbit diagram ]
Orbital Elements at Epoch 2458600.5 (2019-Apr-27.0) TDB
Reference:
JPL 8
(heliocentric ecliptic J2000)
Element
Value
Uncertainty (1-sigma)
Units
e
.1948019823121376
7.0686e-08
a
2.581350909927211
2.8193e-08
au
q
2.07849863563015
1.8662e-07
au
i
2.83084674807427
1.0224e-05
deg
node
284.567289914668
0.00017335
deg
peri
223.3142829879551
0.00017634
deg
M
146.8478108790252
3.599e-05
deg
t
p
2457982.577551617518
(2017-Aug-17.07755162)
0.0001449
TDB
period
1514.84778755709
4.15
2.4818e-05
6.795e-08
d
yr
n
.2376476388961505
3.8933e-09
deg/d
Q
3.084203184224271
3.3685e-08
au
Orbit Determination Parameters
# obs. used (total)
97
data-arc span
5356 days (14.66 yr)
first obs. used
2003-09-19
last obs. used
2018-05-19
planetary ephem.
DE431
SB-pert. ephem.
SB431-N16
condition code
0
norm. resid. RMS
.60735
source
ORB
producer
Otto Matic
solution date
2018-May-31 17:16:53
Additional Information
Earth MOID
= 1.09172 au
Jupiter MOID
= 1.93784 au
T_jup
= 3.396
[ show covariance matrix ]
[
Ephemeris
|
Orbit Diagram
|
Orbital Elements
|
Mission Design
|
Physical Parameters
|
Discovery Circumstances
|
Close-Approach Data
]
Physical Parameter Table
Parameter
Symbol
Value
Units
Sigma
Reference
Notes
absolute magnitude
H
16.9
n/a
MPO450318
351365 (2005 CN19)
Discovered 2005-Feb-02 by CSS at Catalina
Reference:
20130127/Numbers.arc
Last Updated:
2013-01-31
[ show close-approach data ]
[
Ephemeris
|
Orbit Diagram
|
Orbital Elements
|
Mission Design
|
Physical Parameters
|
Discovery Circumstances
|
Close-Approach Data
]
2019-Dec-06 01:30 UT
(server date/time)
Site Manager:
Ryan S. Park
Webmaster
:
Alan B. Chamberlin